Tracking 19280 objects as of 14-Nov-2018
HD Live streaming from Space Station
objects crossing your sky now

GEOS 2

Track GEOS 2 now!
GEOS 2 is classified as:


NORAD ID: 10981
Int'l Code: 1978-071A
Perigee: 36,014.7 km
Apogee: 36,078.5 km
Inclination: 11.9 °
Period: 1,449.0 minutes
Semi major axis: 42417 km
RCS: 2.0304 m2 (large)
Launch date: July 14, 1978
Source: European Space Agency (ESA)
Launch site: AIR FORCE EASTERN TEST RANGE (AFETR)
aabbcc
Your satellite tracking list
Your tracking list is empty




NASA's NSSDC Master Catalog

Two Line Element Set (TLE):
1 10981U 78071A   18317.89249191 -.00000220 +00000-0 +00000-0 0  9990
2 10981 011.9243 317.1042 0007521 315.1908 212.6556 00.99376616146444
Source of the keplerian elements: AFSPC